Portada
METAR-TAF:

METAR-TAF

Aeroports :

Valledupar, Colòmbia

latitud: 10-26N, longitud: 073-15W, altitud: 138 m

Observació

L'informe es va fer fa 33 minuts, a les 11:00 UTC
Vent 9 kt del Est
Temperatura 26°C
Humitat 84%
Pressió 1011 hPa
Visibilitat 10 km o més
Escasses núvols a una alçada de 2000 ft

METAR: SKVP 091100Z 09009KT 9999 FEW020 26/23 Q1011 RMK A2986

Hora: 06:33 (11:33 UTC)


TAF: manca

Observacions i pronòstics meteorològics de més de 4000 aeroports (METAR i TAF).

Les estacions disponibles són els punts grocs i vermells al mapa.

Posi el ratolí al punt desitjat per veure el nom de l'estació.

Feu clic per veure les observacions i els pronòstics meteorològics.

Per canviar el mapa: feu clic els botons verds amb una creu de color negre per apropar; al botó verd amb un guió per allunyar la imatge; o en les fletxes verdes per a mapes adjacents.


METAR-TAF: